Location: Unspecified
(52.4292°N, 19.3359°E)
Time: 22:48:57
(UTC+02:00)

A-11 Canister half - Pass Details

Date: 24 May 2024
Orbit: 1515 x 1685 km, 47.2° (Epoch: 19 June)

Event Time Altitude Azimuth Distance (km) Brightness Sun altitude
Rises 02:22:14 0° 219° (SW) 4,780 - -13.4°
Reaches altitude 10° 02:25:35 10° 212° (SSW) 3,773 - -13.2°
Exits shadow 02:27:20 16° 207° (SSW) 3,285 10.1 -13.1°
Maximum altitude 02:34:09 40° 148° (SSE) 2,150 9.5 -12.6°
Drops below altitude 10° 02:42:31 10° 84° (E) 3,690 11.5 -12.0°
Sets 02:45:46 0° 77° (ENE) 4,665 12.2 -11.8°
